"Pseudo-MPEC" for P10LbzF

Created 2019 Jan 23 11:18:16 UT using Find_Orb

Click here for an explanation of pseudo-MPECs

 
 Astrometry: 
     P10LbzF  C2019 01 04G78-9:p#$N5BU+AstrometryZLFia_cT#(m+:*4*QKv8?k.vo]1kF51
     P10LbzF  C2019 01 04ZWh`\1bPoP4V08OU!KJ8]o^Ttqi6NF%.`;skhS%BciZ8E5cIM?e.F51
     P10LbzF  C2019 01 04]7pwRiC1-SpFgbEW%H^AJ45lHKJ0.b`:o`8Gn3=nU%92*Jd]tSrfF51
     P10LbzF  C2019 01 088Fmb,_B-.0J?)p+h2U,oP_B;t-'Z`s'.5gGXuUByXa]NlK:G1cwKF51
     P10LbzF  C2019 01 08:@A$0bKh]'07_qtgcy[d0Db[*0!ce#'wx+-aWOx8_5Q0/MbS7swSF51
     P10LbzF  C2019 01 08@V=!JMy:e8P94OggOt7^Uy3v!C9V9rfq3Qd=mf0[fH];gW-Aob@\F51
     P10LbzF  C2019 01 08JJ:A]E+T9LeNhQw%G6T_,p%B/;RPe#j`:5Fredacted;o(r4W:?.F51
     P10LbzF |C2019 01 09;kj8TD:owjZT4tHJ@=,l+c,Kq%kw5fb*1,BeQ]4('n6B^@cVLUaj807
     P10LbzF |C2019 01 09VxUa/b]NmtbO0erRI8oYKu.gaJbs=?qrZZZ=b'8$VnhAfAEXjXv;807
     P10LbzF |C2019 01 09hL:DRNYok:aoq/^luYk-IJ*?#iULxToJL/H$7[N(v5RmEj9tI+(L807
     P10LbzF KC2019 01 11_SU.W(=Y,.;4kkJw8IgQCj6%kkbXFcqyr%0Tvj;^_OOPyLh9sF]0H21
     P10LbzF KC2019 01 11=%^qQc',9KGx0vM`PT(RGVR+fX+AOG/Fm=W1EcJpdH';PAk*$wQZH21
     P10LbzF KC2019 01 11kv*kR/4cTwg$j_W@click[H$_y/s)FsEAnjS\@+k.Hy`i#Y=YSx[H21
     P10LbzF |C2019 01 123)=.Q.L*DGiiUkh;[EqnbPH`e%wF-Y65hBCnLA;p0KaR@vx8k:B9807
     P10LbzF |C2019 01 12`RP;tr9iyZ^IEcdw*aOBRjdEEL=wZ67:ih0c:IRm]kp(T[Z^B/ZN807
     P10LbzF |C2019 01 12v,'3FpU0YJYfqqWhS1I3pEC*svOlu!\qa=*a3:rGd+3[jI0ULC%q807
     P10LbzF KC2019 01 12l:McUjG=X;5%%@8;w\d-kk*qb%[-vtChiJ+Do,;MHPR'KDBHZa/K291
     P10LbzF KC2019 01 12!n`y6OIuM(ik*?weDA.FUIU[UI1IACK6)J2s_l^(]B5-FVomfrHG291
     P10LbzF KC2019 01 12H]8Lc$E?dkWlOyHdaotVb:)d;VjNS]]UtP'7T'Wrr4?GherehgeO291
     P10LbzF |C2019 01 15=pE-DRD[.r15/f@85/W6wEVL[peZJ.Q@S8_\mTe]=+y^Dhm!%j5p807
     P10LbzF |C2019 01 15GPP_H6u))B@FM@*qbwMAAMVkca'3qJZ!!sI7HtQH;Ru5\Gw4Ns/U807
     P10LbzF |C2019 01 15bRgc-:fx=lsHnhD#7kT%?M4tWimHK0XAMe[9dx`7!.%!R\8Cjq,k807
     P10LbzF  C2019 01 17-Y%ZD;MbmgynvXJN:L+4h#t3RIr)J06)jJ(_wj,ejU;H%i=AoU8YV06
     P10LbzF  C2019 01 17#.*aR.ik+3wJWRe1/wS$yb2lBwE?k'OcY],$B@VGQ.2W@u.MTa5JV06
     P10LbzF  C2019 01 17;)9jFM'-QJMaqXp]6j3x=g`,kY4^*npEforwcjD6KQBOX)F6S^wKV06
     P10LbzF  C2019 01 17xiA(]kN[/rYyCdAsv%sf21m0\L$NkYfCHaL,STgbaId]v:p([MlyV06
     P10LbzF |C2019 01 19SNn_[w\Z8+xu\8kRN3l@+Ek,DPrf)4B[6HXr(qWZF9rlE6@3\:\,807
     P10LbzF |C2019 01 19Qa3pcEBEy%=mw/8gOKJCD,)f?SX^+8Er..=PSZ)2Qv/`iwi:!28a807
     P10LbzF |C2019 01 19tSCsK+(i[5#dHT;1n*.]xcI7J?,w!\O.YHYd*y@YB3Y-[=p;YB,^807
     P10LbzF ^C2019 01 19k!+:4JD7#pA:^TH?q8gwZs5AfK^YwOZ\in,h_0,V+Gn`o31gKx+L695
     P10LbzF ^C2019 01 19n+^8SE9/fI:3=\PfIVdh;6vB(!ayW0^oH8n(Q#nT\qrr!^v1IM9:695
     P10LbzF ^C2019 01 19AZuirjK#msW1/(explanation*(]h$okvB_6k'+VWw6R@.Bkej?v695

Station data:
(291) LPL/Spacewatch II  (N31.961669 W111.599905)  US/Arizona.  Observers J.
   V. Scotti, R. S. McMillan. 1.8-m f/2.7 reflector + CCD.
(695) Kitt Peak  (N31.958398 W111.594670)  US/Arizona.
(807) Cerro Tololo Observatory, La Serena  (S30.169136 W70.805900)  Chile.
   1.5-m Ritchey-Chrétien.
(F51) Pan-STARRS 1, Haleakala  (N20.707235 W156.255910)  US/Hawaii.
   Observers N. Primak, A. Schultz, S. Watters, J. Thiel, T. Goggia. Measurer
   PS1 Science Consortium. 1.8-m Ritchey-Chrétien + CCD.
(H21) Astronomical Research Observatory, Westfield  (N39.483057 W87.968270)
   US/Illinois. 0.76-m f/3.0 astrograph + CCD.
(V06) Catalina Sky Survey-Kuiper  (N32.416847 W110.732550)  US/Arizona.
   Observers B. M. Africano, E. J. Christensen, G. A. Farneth, D. C. Fuls, A.
   R. Gibbs, A. D. Grauer, H. Groeller, J. A. Johnson, R. A. Kowalski, S. M.
   Larson, G. J. Leonard, R. L. Seaman, F. C. Shelly. 1.55-m reflector + CCD.

Orbital elements:  P10LbzF
   Perihelion 2019 Feb 27.229646 +/- 0.0345 TT =  5:30:41 (JD 2458541.729646)
Epoch 2019 Jan 19.0 TT = JDT 2458502.5   Earth MOID: 0.4328   AutoNEOCP
M 343.95971009 +/- 0.025            (J2000 ecliptic)
n   0.40888183 +/- 0.000376         Peri.   25.51582 +/- 0.022
a   1.79778396 +/- 0.0011           Node   140.65825 +/- 0.0049
e   0.2220984 +/- 0.000393          Incl.   42.05410 +/- 0.011
P   2.41/880.43d           H 21.1   G  0.15   U  7.4  
q 1.39849902 +/- 0.000154    Q 2.19706891 +/- 0.00206
From 32 observations 2019 Jan. 4-19; mean residual 0".26
Residuals in arcseconds: 
190104 F51  .00   .03+    190111 H21  .04+  .48+    190117 V06  .40-  .18-    
190104 F51  .02-  .18-    190111 H21  .30+  .25+    190117 V06  .10-  .12-    
190104 F51  .08-  .02-    190112 807  .07+  .18-    190117 V06  .40-  .07-    
190108 F51  .14+  .07+    190112 807  .32+  .10-    190117 V06  .54-  .10-    
190108 F51  .11-  .08+    190112 807  .14-  .19-    190119 807  .04+  .04-    
190108 F51  .18+  .14+    190112 291  .17+  .17+    190119 807  .25-  .01-    
190108 F51  .02-  .01-    190112 291  .07+  .04+    190119 807  .59-  .15-    
190109 807  .42-  .14+    190112 291  .30+  .16+    190119 695  .91+  .02-    
190109 807  .35-  .12-    190115 807  .00   .09-    190119 695  .68+  .51+    
190109 807  .15-  .19-    190115 807  .21-  .10-    190119 695  .01-  .04+    
190111 H21  .61+  .19-    190115 807  .22-  .07-    

Ephemerides (geocentric):
Date (UTC) HH   RA              Dec         delta   r     elong  mag " sig PA
---- -- -- --  -------------   -----------  ------ ------ -----  --- ---- ---
2019 01 23 11  11 56 03.055   +05 19 59.81  .59691 1.4185 125.8 22.1 .402 132
2019 01 23 12  11 56 07.733   +05 22 25.81  .59658 1.4184 125.8 22.1 .406 132
2019 01 23 13  11 56 12.411   +05 24 52.01  .59625 1.4184 125.9 22.1 .410 132
2019 01 23 14  11 56 17.089   +05 27 18.40  .59592 1.4183 125.9 22.1 .414 132
2019 01 23 15  11 56 21.767   +05 29 44.98  .59559 1.4183 125.9 22.1 .419 132
2019 01 23 16  11 56 26.444   +05 32 11.76  .59526 1.4182 126.0 22.1 .423 132
2019 01 23 17  11 56 31.120   +05 34 38.73  .59493 1.4182 126.0 22.1 .427 132
2019 01 23 18  11 56 35.796   +05 37 05.90  .59460 1.4181 126.0 22.1 .432 132
2019 01 23 19  11 56 40.472   +05 39 33.26  .59428 1.4181 126.1 22.1 .436 132
2019 01 23 20  11 56 45.148   +05 42 00.82  .59395 1.4180 126.1 22.1 .441 132
2019 01 23 21  11 56 49.823   +05 44 28.56  .59362 1.4180 126.2 22.1 .445 132
2019 01 23 22  11 56 54.497   +05 46 56.51  .59330 1.4179 126.2 22.1 .450 132
2019 01 23 23  11 56 59.172   +05 49 24.64  .59297 1.4179 126.2 22.1 .454 132
2019 01 24 00  11 57 03.845   +05 51 52.97  .59265 1.4178 126.3 22.1 .459 132
2019 01 24 01  11 57 08.519   +05 54 21.49  .59232 1.4178 126.3 22.1 .463 132
2019 01 24 02  11 57 13.192   +05 56 50.21  .59200 1.4178 126.4 22.1 .468 132
2019 01 24 03  11 57 17.864   +05 59 19.12  .59167 1.4177 126.4 22.1 .472 132
2019 01 24 04  11 57 22.537   +06 01 48.23  .59135 1.4177 126.4 22.1 .477 132
2019 01 24 05  11 57 27.208   +06 04 17.53  .59103 1.4176 126.5 22.1 .481 132
2019 01 24 06  11 57 31.880   +06 06 47.02  .59070 1.4176 126.5 22.1 .486 132
2019 01 24 07  11 57 36.551   +06 09 16.71  .59038 1.4175 126.5 22.1 .491 132
2019 01 24 08  11 57 41.221   +06 11 46.59  .59006 1.4175 126.6 22.1 .495 132
2019 01 24 09  11 57 45.891   +06 14 16.66  .58974 1.4174 126.6 22.1 .500 132
2019 01 24 10  11 57 50.561   +06 16 46.93  .58942 1.4174 126.7 22.1 .505 132
2019 01 24 11  11 57 55.230   +06 19 17.39  .58910 1.4173 126.7 22.1 .510 132
2019 01 24 12  11 57 59.899   +06 21 48.05  .58878 1.4173 126.7 22.1 .514 132
2019 01 24 13  11 58 04.567   +06 24 18.90  .58846 1.4173 126.8 22.1 .519 132
2019 01 24 14  11 58 09.235   +06 26 49.94  .58814 1.4172 126.8 22.1 .524 132
2019 01 24 15  11 58 13.903   +06 29 21.18  .58782 1.4172 126.8 22.1 .529 132
2019 01 24 16  11 58 18.570   +06 31 52.61  .58750 1.4171 126.9 22.1 .534 132
2019 01 24 17  11 58 23.236   +06 34 24.23  .58719 1.4171 126.9 22.1 .539 132
2019 01 24 18  11 58 27.903   +06 36 56.05  .58687 1.4170 127.0 22.1 .543 132
2019 01 24 19  11 58 32.568   +06 39 28.06  .58655 1.4170 127.0 22.1 .548 132
2019 01 24 20  11 58 37.234   +06 42 00.26  .58624 1.4169 127.0 22.1 .553 132
2019 01 24 21  11 58 41.898   +06 44 32.66  .58592 1.4169 127.1 22.1 .558 132
2019 01 24 22  11 58 46.563   +06 47 05.25  .58561 1.4168 127.1 22.1 .563 132
2019 01 24 23  11 58 51.227   +06 49 38.03  .58529 1.4168 127.1 22.1 .568 132
2019 01 25 00  11 58 55.890   +06 52 11.01  .58498 1.4168 127.2 22.1 .573 132
2019 01 25 01  11 59 00.553   +06 54 44.18  .58467 1.4167 127.2 22.1 .578 132
2019 01 25 02  11 59 05.216   +06 57 17.55  .58435 1.4167 127.3 22.1 .583 132
2019 01 25 03  11 59 09.878   +06 59 51.10  .58404 1.4166 127.3 22.1 .588 132
2019 01 25 04  11 59 14.539   +07 02 24.85  .58373 1.4166 127.3 22.1 .594 132
2019 01 25 05  11 59 19.201   +07 04 58.80  .58342 1.4165 127.4 22.1 .599 132
2019 01 25 06  11 59 23.861   +07 07 32.93  .58311 1.4165 127.4 22.1 .604 132
2019 01 25 07  11 59 28.522   +07 10 07.26  .58280 1.4164 127.4 22.1 .609 132
2019 01 25 08  11 59 33.181   +07 12 41.79  .58249 1.4164 127.5 22.1 .614 132
2019 01 25 09  11 59 37.841   +07 15 16.50  .58218 1.4163 127.5 22.0 .620 132
2019 01 25 10  11 59 42.499   +07 17 51.41  .58187 1.4163 127.6 22.0 .625 132